SEBI

Registration No.

INH000000305

Ip Address Lookup

So far visitors:

customizable counter

TRIAL

TRIAL

SEND SMS FOR TRIAL

EQUITY - COMMODITY OR BOTH

TO

 09920033678

AND GET TRIAL

 


Information: COPPER (MCX): LOT SIZE CHANGED TO 2500 from 1000 (from JUL CONTRACT)

SEBI Registration No.: INH000000305 *****

* Commodity: 9500/month * Equity: 6000/month


* Gold Package: 7000 * Gold-Silver Package: 8100
*Crude-NG-Copper-Nickel Package: 6000


To See Past Performance, Click Here

For TRIAL / Registration,

click here

Past Performance >> Equity Tips
 
Search
 
Entry Start Date Entry End Date
Exit Start Date Exit End Date
Scrip Name Contract
Package
 

Packages: Precious Metals - Energy and Base Metals - Profit is calculated on basis of 1 lot per call

Package: Equity calls: Profit is calculated as follows:

1. If the scrip is in F & O then 1 lot is counted otherwise

2. Trade of Rs.1,50,000/- per call is counted.

 
Page: ( 1 2 3 4 5 6 7 8 9 10 11 12 13 14 15 16 17 18 19 20 21 22 23 24 25 26 27 28 29 30 31 32 33 34 35 36 37 38 39 40 41 42 43 44 45 46 47 48 49 50 51 52 53 54 55 56 57 58 59 60 61 62 63 64 65 66 67 68 69 70 71 72 73 74 75 76 77 78 79 80 81 82 83 84 85 86 87 88 89 90 91 92 93 94 95 96 97 98 99 100 101 102 103 104 105 106 107 108 109 110 111 ) [Current Page: 46]
Displaying 3376 to 3450   Calls
Entry Date Type Scrip Entry Price (Rs) T1
(Rs)
T2
(Rs)
T3
(Rs)
Stop Loss
(Rs)
Exit Date Exit Rate
(Rs)
Profit
(Rs)
 
26-11-14 Sell DLF 137.50 133 130 127 142 26-11-14 142 -9000.00 More
25-11-14 Sell Below Nifty 8490 8470 8450 8430 8520 25-11-14 8440 1250.00 More
25-11-14 Buy Nifty 8520 8540 8560 --- 8490 25-11-14 8490 -750.00 More
25-11-14 Buy Above DABUR 239 243 247 250 235 25-11-14 244.50 5500.00 More
24-11-14 Buy HERO MOTOR 3053 3075 3100 3150 3020 25-11-14 3090 4625.00 More
24-11-14 Buy YES BANK 707 720 730 740 693 25-11-14 693 -7000.00 More
24-11-14 Buy BANK NIFTY 18210 18270 18350 18450 18150 24-11-14 18150 -1500.00 More
21-11-14 Buy IDEA 173 176 180 185 168 24-11-14 168 -10000.00 More
20-11-14 Sell Below Nifty 8375 8350 8325 8300 8400 20-11-14 8400 -625.00 More
20-11-14 Buy Above HAVELLS 308 312 316 320 301 24-11-14 316 10000.00 More
20-11-14 Buy Above 687 695 705 715 675 27-11-14 715 14000.00 More
19-11-14 Buy SIEMENS 940 950 960 970 927 19-11-14 955 3750.00 More
18-11-14 Buy Above BANK NIFTY 17720 17790 17850 17900 17620 18-11-14 17790 1750.00 More
18-11-14 Buy Andhra Bank 90 92 94 96 87.50 18-11-14 92 8000.00 More
18-11-14 Buy Bhushan Steel 106.50 113 117 134 100 26-11-14 100 -6110.00 More
18-11-14 Buy Above Nifty 8465 8490 8510 8530 8435 18-11-14 8435 -750.00 More
17-11-14 Buy Above Nifty 8410 8430 8450 8470 8380 17-11-14 8460 1250.00 More
17-11-14 Buy Above BANK NIFTY 17650 17720 17800 17900 17570 17-11-14 17740 2250.00 More
17-11-14 Buy Above VOLTAS 273 278 282 290 265 17-11-14 280 7000.00 More
17-11-14 Buy Jindal Saw 100 105 110 118 95 05-12-14 115.50 15500.00 More
14-11-14 Buy Above HEXAWARE 225 230 235 --- 221 14-11-14 221 -8000.00 More
14-11-14 Buy Above Nifty 8390 8410 8430 8450 8370 14-11-14 8425 875.00 More
13-11-14 Buy ABNuvo 1830 1860 1900 1930 1800 14-11-14 1800 -7500.00 More
13-11-14 Buy Above Nifty 8410 8440 8470 --- 8380 13-11-14 8380 -750.00 More
13-11-14 Buy 192 202 208 --- 185 24-11-14 185 -3710.00 More
13-11-14 Buy Above ICICI BANK 1717 1730 1745 1760 1705 13-11-14 1705 -3000.00 More
13-11-14 Buy DABUR 236.50 240 245 --- 232 13-11-14 232 -4500.00 More
12-11-14 Sell NTPC 144 141 138 --- 147 14-11-14 141 6000.00 More
12-11-14 Buy Nifty 8420 8450 8470 --- 8400 12-11-14 8445 625.00 More
12-11-14 Buy Above BANK NIFTY 17600 17660 17720 17800 17550 12-11-14 17720 3000.00 More
12-11-14 Buy Above 491 496 502 --- 485 13-11-14 485 -3000.00 More
12-11-14 Buy TataInv 579 590 600 --- 565 13-11-14 565 -2380.00 More
12-11-14 Buy Rolta 110 114 118 122 100 14-11-14 117 6300.00 More
12-11-14 Buy SyndiBank 132 135 138 --- 130 12-11-14 130 -4000.00 More
11-11-14 Buy 21 23 25 --- 19 12-12-14 19 -9520.00 More
11-11-14 Buy Goodyear 635 665 695 720 600 05-12-14 712 12320.00 More
11-11-14 Buy Tata Sponge 707 717 725 740 679 11-11-14 719 1680.00 More
11-11-14 Buy L&TFin 72 77 82 90 65 19-11-14 76.90 6811.00 More
11-11-14 Buy Above BANK NIFTY 17450 17520 17570 17650 17390 11-11-14 17540 2250.00 More
11-11-14 Buy Above Nifty 8390 8410 8425 8450 8370 11-11-14 8370 -500.00 More
11-11-14 Buy HAVELLS 308 314 320 --- 301 13-11-14 301 -8750.00 More
10-11-14 Buy Above ZEEL 375 380 385 390 369 10-11-14 369 -6000.00 More
10-11-14 Buy Above BANK NIFTY 17490 17550 17600 17650 17390 10-11-14 17390 -2500.00 More
10-11-14 Buy Above Nifty 8410 8430 8450 8470 8380 10-11-14 8380 -750.00 More
10-11-14 Buy IRB Infra 265 270 275 280 260 11-11-14 279 14000.00 More
07-11-14 Sell Below Nifty 8360 8340 8320 8300 8390 07-11-14 8330 750.00 More
07-11-14 Sell 1710 1690 1670 1630 1740 07-11-14 1693 2125.00 More
07-11-14 Buy INFY 4160 4200 4250 4300 4100 07-11-14 4200 5000.00 More
05-11-14 Buy 305.50 309 311 345 297 12-11-14 342 36500.00 More
05-11-14 Buy RELIANCE 1001 1011 1015 --- 989 07-11-14 989 -3000.00 More
05-11-14 Buy TATA CHEM 415 421 430 --- 409 10-11-14 430 15000.00 More
05-11-14 Buy Above Nifty 8370 8390 8410 --- 8345 05-11-14 8410 1000.00 More
05-11-14 Buy Above HDFC 1125 1135 1145 1155 1110 05-11-14 1110 -3750.00 More
03-11-14 Buy Reliance Power 80 82 84 86 76 07-11-14 76 -16000.00 More
03-11-14 Buy RELIANCE 1003 1008 1012 1035 989 03-11-14 1015 3000.00 More
03-11-14 Buy Above BANK NIFTY 17200 17270 17350 17400 17130 03-11-14 17280 2000.00 More
03-11-14 Buy RELIANCE INFRA 643 650 655 665 635 05-11-14 660 8500.00 More
03-11-14 Buy Above Nifty 8375 8400 8425 8450 8345 03-11-14 8375 0.00 More
03-11-14 Buy Above AXIS BANK 443 448 452 460 437 05-11-14 460 21250.00 More
31-10-14 Buy BHARAT FOIRG 815 825 835 850 800 05-11-14 846 7750.00 More
31-10-14 Buy Nifty 8315 8340 8350 --- 8300 31-10-14 8350 875.00 More
31-10-14 Buy 515 519 524 --- 510 31-10-14 524 4500.00 More
31-10-14 Buy ACC 1510 1525 1535 1550 1498 03-11-14 1498 -3000.00 More
31-10-14 Buy HFCL 18.25 20 22 24 16.90 11-11-14 23 24320.00 More
30-10-14 Buy IPAPPM 305 325 365 400 275 24-11-14 275 -10500.00 More
30-10-14 Buy BASF 1190 1225 1250 1360 1150 05-12-14 1364 13920.00 More
30-10-14 Buy Munjal Showa 221 230 240 275 209 05-11-14 252 13950.00 More
30-10-14 Sell Below BANK NIFTY 16580 16520 16450 --- 16650 30-10-14 16650 -1750.00 More
29-10-14 Buy Above BANK NIFTY 16730 16780 16850 16900 16670 29-10-14 16670 -1500.00 More
29-10-14 Sell Below BANK NIFTY 16670 16600 16530 16450 16730 29-10-14 16590 2000.00 More
29-10-14 Buy Above TITAN 408 412 417 --- 403 30-10-14 417 9000.00 More
28-10-14 Sell ADANI ENT 462 458 452 --- 468 29-10-14 468 -6000.00 More
28-10-14 Buy Above Nifty 8040 8060 8080 8100 8020 28-10-14 8040 0.00 More
28-10-14 Buy BANK NIFTY 16660 16720 16770 16820 16550 28-10-14 16715 1375.00 More
28-10-14 Buy AXIS BANK 429 433 437 445 424 28-10-14 424 -6250.00 More
Page wise profit 149206.00 Rs
Profit 26154042.00 Rs
TRIAL

TRIAL

SEND SMS FOR TRIAL

EQUITY - COMMODITY OR BOTH

TO

 09920033678

AND GET TRIAL